Left ArrowRight Arrow

45.66244, -110.56104

Hourly Observations for May 25, 2024

Temp ( °F °C ) Dew Point ( °F °C ) Humidity (%) Winds ( mph kmh ) Pressure ( in mb ) Visibility ( mi km ) Precip ( " mm )
12:53 am 00:53 Mostly Cloudy 47 8.3 39 3.9 74 74 N 8 13 29.68 1005 10 16 0.01 0.25
1:53 am 01:53 Cloudy 42 5.6 38 3.3 85 85 NW 3 6 29.69 1005 10 16 0.00 0.00
2:53 am 02:53 Cloudy with Light Rain 45 7.2 38 3.3 76 76 N 6 9 29.66 1005 10 16 0.01 0.13
3:53 am 03:53 Cloudy 43 6.1 38 3.3 82 82 SW 3 6 29.67 1005 10 16 0.01 0.25
4:53 am 04:53 Mostly Cloudy 39 3.9 35 1.7 86 86 NW 6 9 29.68 1005 10 16 0.00 0.00
5:53 am 05:53 Mostly Cloudy 39 3.9 35 1.7 86 86 Calm 29.69 1005 10 16 0.00 0.00
6:53 am 06:53 Cloudy 42 5.6 35 1.7 76 76 NW 6 9 29.67 1005 10 16 0.00 0.00
7:53 am 07:53 Cloudy 43 6.1 36 2.2 76 76 WNW 6 9 29.68 1005 10 16 0.00 0.00
8:53 am 08:53 Cloudy 49 9.4 37 2.8 63 63 NNW 7 11 29.67 1005 10 16 0.00 0.00
9:53 am 09:53 Mostly Sunny 55 12.8 39 3.9 55 55 NNW 7 11 29.64 1004 10 16 0.00 0.00
10:53 am 10:53 Sunny 60 15.6 38 3.3 44 44 Calm 29.62 1003 10 16 0.00 0.00
11:53 am 11:53 Partly Cloudy 62 16.7 37 2.8 39 39 undefined N/A 29.60 1003 10 16 0.00 0.00
12:53 pm 12:53 Cloudy with Light Rain 55 12.8 35 1.7 47 47 S 14 22 29.64 1004 10 16 0.01 0.13
1:53 pm 13:53 Cloudy with Light Rain 56 13.3 42 5.6 60 60 S 6 9 29.67 1005 10 16 0.01 0.13
2:53 pm 14:53 Cloudy with Heavy Rain 49 9.4 43 6.1 80 80 S 12 19 29.72 1006 2 3 0.02 0.51
3:05 pm 15:05 Cloudy with Light Rain 51 10.6 45 7.2 79 79 SSW 7 11 29.65 1004 5 8 0.01 0.25
3:53 pm 15:53 Sunny 56 13.3 42 5.6 60 60 S 5 7 29.67 1005 10 16 0.08 2.03
4:53 pm 16:53 Cloudy 57 13.9 42 5.6 57 57 Calm 29.68 1005 10 16 0.00 0.00
5:19 pm 17:19 Cloudy with Rain 50 10 45 7.2 83 83 SW 17 28 29.65 1004 4 6 0.01 0.25
5:53 pm 17:53 Mostly Cloudy 54 12.2 45 7.2 71 71 SW 9 15 29.70 1006 10 16 0.02 0.51
6:53 pm 18:53 Sunny 57 13.9 44 6.7 62 62 E 7 11 29.66 1004 10 16 0.00 0.00
7:30 pm 19:30 Mostly Cloudy with Nearby Thunderstorms 53 11.7 44 6.7 71 71 Calm 29.61 1003 10 16 0.00 0.00
7:45 pm 19:45 Cloudy with Light Rain 50 10 42 5.6 74 74 WNW 17 28 29.68 1005 7 11 0.01 0.13
8:01 pm 20:01 Cloudy with Rain 47 8.3 43 6.1 86 86 NNW 9 15 29.72 1007 4 6 0.01 0.25
8:09 pm 20:09 Cloudy with Nearby Thunderstorms 47 8.3 42 5.6 83 83 W 5 7 29.73 1007 5 8 0.03 0.76
8:24 pm 20:24 Cloudy 49 9.4 43 6.1 80 80 SSE 5 7 29.70 1006 10 16 0.05 1.27
8:53 pm 20:53 Mostly Cloudy 48 8.9 42 5.6 80 80 NW 7 11 29.75 1007 10 16 0.05 1.27
9:53 pm 21:53 Clear 42 5.6 39 3.9 89 89 SW 6 9 29.75 1008 10 16 0.00 0.00
10:53 pm 22:53 Cloudy 44 6.7 41 5 89 89 WSW 9 15 29.75 1007 10 16 0.00 0.00
11:53 pm 23:53 Mostly Cloudy 44 6.7 41 5 89 89 WNW 10 17 29.74 1007 10 16 0.00 0.00

Powered by Vaisala Xweather